Year,Month,Day,Hour,Minute,Value (Times are PST for temperature in C)
2009,03,07,00,00,3.60
2009,03,07,00,01,3.80
2009,03,07,00,02,4.00
2009,03,07,00,03,4.20
2009,03,07,00,04,4.40
2009,03,07,00,05,4.50
2009,03,07,00,06,4.70
2009,03,07,00,07,4.80
2009,03,07,00,08,4.90
2009,03,07,00,09,5.00
2009,03,07,00,10,5.10
2009,03,07,00,11,5.10
2009,03,07,00,12,5.20
2009,03,07,00,13,5.20
2009,03,07,00,14,5.20
2009,03,07,00,15,5.30
2009,03,07,00,16,5.30
2009,03,07,00,17,5.30
2009,03,07,00,18,5.30
2009,03,07,00,19,5.30
2009,03,07,00,20,5.30
2009,03,07,00,21,5.30
2009,03,07,00,22,5.30
2009,03,07,00,23,5.30
2009,03,07,00,24,5.30
2009,03,07,00,25,5.30
2009,03,07,00,26,5.20
2009,03,07,00,27,5.20
2009,03,07,00,28,5.20
2009,03,07,00,29,5.20
2009,03,07,00,30,5.20
2009,03,07,00,31,5.20
2009,03,07,00,32,5.20
2009,03,07,00,33,5.20
2009,03,07,00,34,5.20
2009,03,07,00,35,5.20
2009,03,07,00,36,5.20
2009,03,07,00,37,5.20
2009,03,07,00,38,5.20
2009,03,07,00,39,5.20
2009,03,07,00,40,5.20
2009,03,07,00,41,5.20
2009,03,07,00,42,5.20
2009,03,07,00,43,5.20
2009,03,07,00,44,5.20
2009,03,07,00,45,5.20
2009,03,07,00,46,5.20
2009,03,07,00,47,5.20
2009,03,07,00,48,5.10
2009,03,07,00,49,5.10
2009,03,07,00,50,5.10
2009,03,07,00,51,5.10
2009,03,07,00,52,5.10
2009,03,07,00,53,5.10
2009,03,07,00,54,5.10
2009,03,07,00,55,5.10
2009,03,07,00,56,5.10
2009,03,07,00,57,5.10
2009,03,07,00,58,5.10
2009,03,07,00,59,5.10
2009,03,07,01,00,5.10
2009,03,07,01,01,5.10
2009,03,07,01,02,5.10
2009,03,07,01,03,5.10
2009,03,07,01,04,5.10
2009,03,07,01,05,5.10
2009,03,07,01,06,5.10
2009,03,07,01,07,5.10
2009,03,07,01,08,5.10
2009,03,07,01,09,5.10
2009,03,07,01,10,5.10
2009,03,07,01,11,5.00
2009,03,07,01,12,5.00
2009,03,07,01,13,5.00
2009,03,07,01,14,5.00
2009,03,07,01,15,5.00
2009,03,07,01,16,5.00
2009,03,07,01,17,5.10
2009,03,07,01,18,5.10
2009,03,07,01,19,5.10
2009,03,07,01,20,5.10
2009,03,07,01,21,5.10
2009,03,07,01,22,5.00
2009,03,07,01,23,5.00
2009,03,07,01,24,5.00
2009,03,07,01,25,5.00
2009,03,07,01,26,4.90
2009,03,07,01,27,4.90
2009,03,07,01,28,4.90
2009,03,07,01,29,4.90
2009,03,07,01,30,4.90
2009,03,07,01,31,4.90
2009,03,07,01,32,4.90
2009,03,07,01,33,4.90
2009,03,07,01,34,4.90
2009,03,07,01,35,4.90
2009,03,07,01,36,4.90
2009,03,07,01,37,4.80
2009,03,07,01,38,4.80
2009,03,07,01,39,4.80
2009,03,07,01,40,4.80
2009,03,07,01,41,4.80
2009,03,07,01,42,4.80
2009,03,07,01,43,4.80
2009,03,07,01,44,4.80
2009,03,07,01,45,4.80
2009,03,07,01,46,4.80
2009,03,07,01,47,4.70
2009,03,07,01,48,4.70
2009,03,07,01,49,4.70
2009,03,07,01,50,4.70
2009,03,07,01,51,4.70
2009,03,07,01,52,4.70
2009,03,07,01,53,4.70
2009,03,07,01,54,4.70
2009,03,07,01,55,4.70
2009,03,07,01,56,4.70
2009,03,07,01,57,4.70
2009,03,07,01,58,4.70
2009,03,07,01,59,4.70
2009,03,07,02,00,4.70
2009,03,07,02,01,4.70
2009,03,07,02,02,4.70
2009,03,07,02,03,4.70
2009,03,07,02,04,4.70
2009,03,07,02,05,4.70
2009,03,07,02,06,4.70
2009,03,07,02,07,4.70
2009,03,07,02,08,4.70
2009,03,07,02,09,4.70
2009,03,07,02,10,4.70
2009,03,07,02,11,4.70
2009,03,07,02,12,4.70
2009,03,07,02,13,4.60
2009,03,07,02,14,4.60
2009,03,07,02,15,4.60
2009,03,07,02,16,4.60
2009,03,07,02,17,4.60
2009,03,07,02,18,4.60
2009,03,07,02,19,4.50
2009,03,07,02,20,4.50
2009,03,07,02,21,4.50
2009,03,07,02,22,4.50
2009,03,07,02,23,4.50
2009,03,07,02,24,4.50
2009,03,07,02,25,4.50
2009,03,07,02,26,4.50
2009,03,07,02,27,4.50
2009,03,07,02,28,4.50
2009,03,07,02,29,4.50
2009,03,07,02,30,4.40
2009,03,07,02,31,4.40
2009,03,07,02,32,4.40
2009,03,07,02,33,4.40
2009,03,07,02,34,4.40
2009,03,07,02,35,4.40
2009,03,07,02,36,4.30
2009,03,07,02,37,4.30
2009,03,07,02,38,4.30
2009,03,07,02,39,4.30
2009,03,07,02,40,4.30
2009,03,07,02,41,4.30
2009,03,07,02,42,4.30
2009,03,07,02,43,4.30
2009,03,07,02,44,4.30
2009,03,07,02,45,4.30
2009,03,07,02,46,4.20
2009,03,07,02,47,4.20
2009,03,07,02,48,4.20
2009,03,07,02,49,4.20
2009,03,07,02,50,4.20
2009,03,07,02,51,4.20
2009,03,07,02,52,4.20
2009,03,07,02,53,4.20
2009,03,07,02,54,4.20
2009,03,07,02,55,4.20
2009,03,07,02,56,4.20
2009,03,07,02,57,4.20
2009,03,07,02,58,4.20
2009,03,07,02,59,4.20
2009,03,07,03,00,4.20
2009,03,07,03,01,4.20
2009,03,07,03,02,4.20
2009,03,07,03,03,4.20
2009,03,07,03,04,4.20
2009,03,07,03,05,4.20
2009,03,07,03,06,4.20
2009,03,07,03,07,4.10
2009,03,07,03,08,4.10
2009,03,07,03,09,4.10
2009,03,07,03,10,4.10
2009,03,07,03,11,4.10
2009,03,07,03,12,4.10
2009,03,07,03,13,4.10
2009,03,07,03,14,4.10
2009,03,07,03,15,4.10
2009,03,07,03,16,4.10
2009,03,07,03,17,4.10
2009,03,07,03,18,4.10
2009,03,07,03,19,4.10
2009,03,07,03,20,4.10
2009,03,07,03,21,4.10
2009,03,07,03,22,4.10
2009,03,07,03,23,4.10
2009,03,07,03,24,4.10
2009,03,07,03,25,4.10
2009,03,07,03,26,4.10
2009,03,07,03,27,4.10
2009,03,07,03,28,4.10
2009,03,07,03,29,4.20
2009,03,07,03,30,4.20
2009,03,07,03,31,4.20
2009,03,07,03,32,4.20
2009,03,07,03,33,4.20
2009,03,07,03,34,4.30
2009,03,07,03,35,4.30
2009,03,07,03,36,4.30
2009,03,07,03,37,4.40
2009,03,07,03,38,4.40
2009,03,07,03,39,4.40
2009,03,07,03,40,4.40
2009,03,07,03,41,4.40
2009,03,07,03,42,4.40
2009,03,07,03,43,4.50
2009,03,07,03,44,4.50
2009,03,07,03,45,4.50
2009,03,07,03,46,4.50
2009,03,07,03,47,4.50
2009,03,07,03,48,4.50
2009,03,07,03,49,4.50
2009,03,07,03,50,4.60
2009,03,07,03,51,4.60
2009,03,07,03,52,4.60
2009,03,07,03,53,4.60
2009,03,07,03,54,4.70
2009,03,07,03,55,4.70
2009,03,07,03,56,4.70
2009,03,07,03,57,4.70
2009,03,07,03,58,4.70
2009,03,07,03,59,4.70
2009,03,07,04,00,4.70
2009,03,07,04,01,4.60
2009,03,07,04,02,4.60
2009,03,07,04,03,4.60
2009,03,07,04,04,4.60
2009,03,07,04,05,4.60
2009,03,07,04,06,4.60
2009,03,07,04,07,4.50
2009,03,07,04,08,4.50
2009,03,07,04,09,4.60
2009,03,07,04,10,4.60
2009,03,07,04,11,4.60
2009,03,07,04,12,4.50
2009,03,07,04,13,4.50
2009,03,07,04,14,4.50
2009,03,07,04,15,4.50
2009,03,07,04,16,4.50
2009,03,07,04,17,4.50
2009,03,07,04,18,4.40
2009,03,07,04,19,4.40
2009,03,07,04,20,4.40
2009,03,07,04,21,4.30
2009,03,07,04,22,4.30
2009,03,07,04,23,4.30
2009,03,07,04,24,4.30
2009,03,07,04,25,4.30
2009,03,07,04,26,4.30
2009,03,07,04,27,4.20
2009,03,07,04,28,4.20
2009,03,07,04,29,4.20
2009,03,07,04,30,4.20
2009,03,07,04,31,4.20
2009,03,07,04,32,4.20
2009,03,07,04,33,4.10
2009,03,07,04,34,4.00
2009,03,07,04,35,4.00
2009,03,07,04,36,3.90
2009,03,07,04,37,3.90
2009,03,07,04,38,3.90
2009,03,07,04,39,3.80
2009,03,07,04,40,3.80
2009,03,07,04,41,3.80
2009,03,07,04,42,3.80
2009,03,07,04,43,3.80
2009,03,07,04,44,3.80
2009,03,07,04,45,3.80
2009,03,07,04,46,3.80
2009,03,07,04,47,3.80
2009,03,07,04,48,3.80
2009,03,07,04,49,3.90
2009,03,07,04,50,3.90
2009,03,07,04,51,3.90
2009,03,07,04,52,3.90
2009,03,07,04,53,3.90
2009,03,07,04,54,3.90
2009,03,07,04,55,3.90
2009,03,07,04,56,3.90
2009,03,07,04,57,3.90
2009,03,07,04,58,3.90
2009,03,07,04,59,3.80
2009,03,07,05,00,3.80
2009,03,07,05,01,3.80
2009,03,07,05,02,3.80
2009,03,07,05,03,3.80
2009,03,07,05,04,3.80
2009,03,07,05,05,3.80
2009,03,07,05,06,3.80
2009,03,07,05,07,3.80
2009,03,07,05,08,3.80
2009,03,07,05,09,3.90
2009,03,07,05,10,3.90
2009,03,07,05,11,3.90
2009,03,07,05,12,3.90
2009,03,07,05,13,3.90
2009,03,07,05,14,3.90
2009,03,07,05,15,3.90
2009,03,07,05,16,3.80
2009,03,07,05,17,3.80
2009,03,07,05,18,3.80
2009,03,07,05,19,3.80
2009,03,07,05,20,3.80
2009,03,07,05,21,3.70
2009,03,07,05,22,3.70
2009,03,07,05,23,3.70
2009,03,07,05,24,3.80
2009,03,07,05,25,3.80
2009,03,07,05,26,3.80
2009,03,07,05,27,3.80
2009,03,07,05,28,3.80
2009,03,07,05,29,3.80
2009,03,07,05,30,3.80
2009,03,07,05,31,3.90
2009,03,07,05,32,3.90
2009,03,07,05,33,3.90
2009,03,07,05,34,3.90
2009,03,07,05,35,3.80
2009,03,07,05,36,3.80
2009,03,07,05,37,3.80
2009,03,07,05,38,3.80
2009,03,07,05,39,3.80
2009,03,07,05,40,3.80
2009,03,07,05,41,3.80
2009,03,07,05,42,3.80
2009,03,07,05,43,3.80
2009,03,07,05,44,3.80
2009,03,07,05,45,3.80
2009,03,07,05,46,3.80
2009,03,07,05,47,3.90
2009,03,07,05,48,3.90
2009,03,07,05,49,3.90
2009,03,07,05,50,3.90
2009,03,07,05,51,3.90
2009,03,07,05,52,3.90
2009,03,07,05,53,3.80
2009,03,07,05,54,3.80
2009,03,07,05,55,3.80
2009,03,07,05,56,3.80
2009,03,07,05,57,3.80
2009,03,07,05,58,3.80
2009,03,07,05,59,3.80
2009,03,07,06,00,3.80
2009,03,07,06,01,3.80
2009,03,07,06,02,3.80
2009,03,07,06,03,3.80
2009,03,07,06,04,3.80
2009,03,07,06,05,3.80
2009,03,07,06,06,3.80
2009,03,07,06,07,3.80
2009,03,07,06,08,3.80
2009,03,07,06,09,3.80
2009,03,07,06,10,3.80
2009,03,07,06,11,3.80
2009,03,07,06,12,3.80
2009,03,07,06,13,3.70
2009,03,07,06,14,3.70
2009,03,07,06,15,3.70
2009,03,07,06,16,3.70
2009,03,07,06,17,3.70
2009,03,07,06,18,3.70
2009,03,07,06,19,3.70
2009,03,07,06,20,3.80
2009,03,07,06,21,3.80
2009,03,07,06,22,3.80
2009,03,07,06,23,3.80
2009,03,07,06,24,3.80
2009,03,07,06,25,3.70
2009,03,07,06,26,3.70
2009,03,07,06,27,3.70
2009,03,07,06,28,3.80
2009,03,07,06,29,3.80
2009,03,07,06,30,3.80
2009,03,07,06,31,3.80
2009,03,07,06,32,3.80
2009,03,07,06,33,3.70
2009,03,07,06,34,3.70
2009,03,07,06,35,3.70
2009,03,07,06,36,3.70
2009,03,07,06,37,3.70
2009,03,07,06,38,3.70
2009,03,07,06,39,3.70
2009,03,07,06,40,3.70
2009,03,07,06,41,3.70
2009,03,07,06,42,3.60
2009,03,07,06,43,3.60
2009,03,07,06,44,3.60
2009,03,07,06,45,3.60
2009,03,07,06,46,3.60
2009,03,07,06,47,3.60
2009,03,07,06,48,3.60
2009,03,07,06,49,3.60
2009,03,07,06,50,3.60
2009,03,07,06,51,3.60
2009,03,07,06,52,3.60
2009,03,07,06,53,3.60
2009,03,07,06,54,3.50
2009,03,07,06,55,3.50
2009,03,07,06,56,3.50
2009,03,07,06,57,3.50
2009,03,07,06,58,3.50
2009,03,07,06,59,3.50
2009,03,07,07,00,3.50
2009,03,07,07,01,3.50
2009,03,07,07,02,3.50
2009,03,07,07,03,3.40
2009,03,07,07,04,3.50
2009,03,07,07,05,3.50
2009,03,07,07,06,3.50
2009,03,07,07,07,3.50
2009,03,07,07,08,3.60
2009,03,07,07,09,3.60
2009,03,07,07,10,3.60
2009,03,07,07,11,3.60
2009,03,07,07,12,3.70
2009,03,07,07,13,3.70
2009,03,07,07,14,3.70
2009,03,07,07,15,3.70
2009,03,07,07,16,3.70
2009,03,07,07,17,3.70
2009,03,07,07,18,3.70
2009,03,07,07,19,3.70
2009,03,07,07,20,3.70
2009,03,07,07,21,3.70
2009,03,07,07,22,3.70
2009,03,07,07,23,3.70
2009,03,07,07,24,3.70
2009,03,07,07,25,3.70
2009,03,07,07,26,3.70
2009,03,07,07,27,3.60
2009,03,07,07,28,3.60
2009,03,07,07,29,3.60
2009,03,07,07,30,3.60
2009,03,07,07,31,3.60
2009,03,07,07,32,3.60
2009,03,07,07,33,3.60
2009,03,07,07,34,3.60
2009,03,07,07,35,3.60
2009,03,07,07,36,3.60
2009,03,07,07,37,3.60
2009,03,07,07,38,3.60
2009,03,07,07,39,3.60
2009,03,07,07,40,3.60
2009,03,07,07,41,3.60
2009,03,07,07,42,3.60
2009,03,07,07,43,3.60
2009,03,07,07,44,3.60
2009,03,07,07,45,3.60
2009,03,07,07,46,3.60
2009,03,07,07,47,3.60
2009,03,07,07,48,3.60
2009,03,07,07,49,3.60
2009,03,07,07,50,3.50
2009,03,07,07,51,3.50
2009,03,07,07,52,3.50
2009,03,07,07,53,3.50
2009,03,07,07,54,3.40
2009,03,07,07,55,3.40
2009,03,07,07,56,3.40
2009,03,07,07,57,3.40
2009,03,07,07,58,3.40
2009,03,07,07,59,3.40
2009,03,07,08,00,3.40
2009,03,07,08,01,3.50
2009,03,07,08,02,3.60
2009,03,07,08,03,3.60
2009,03,07,08,04,3.70
2009,03,07,08,05,3.70
2009,03,07,08,06,3.80
2009,03,07,08,07,3.80
2009,03,07,08,08,3.90
2009,03,07,08,09,4.00
2009,03,07,08,10,4.00
2009,03,07,08,11,4.10
2009,03,07,08,12,4.10
2009,03,07,08,13,4.20
2009,03,07,08,14,4.20
2009,03,07,08,15,4.20
2009,03,07,08,16,4.20
2009,03,07,08,17,4.20
2009,03,07,08,18,4.30
2009,03,07,08,19,4.30
2009,03,07,08,20,4.30
2009,03,07,08,21,4.30
2009,03,07,08,22,4.30
2009,03,07,08,23,4.40
2009,03,07,08,24,4.40
2009,03,07,08,25,4.40
2009,03,07,08,26,4.50
2009,03,07,08,27,4.50
2009,03,07,08,28,4.60
2009,03,07,08,29,4.60
2009,03,07,08,30,4.70
2009,03,07,08,31,4.70
2009,03,07,08,32,4.70
2009,03,07,08,33,4.70
2009,03,07,08,34,4.80
2009,03,07,08,35,4.80
2009,03,07,08,36,4.80
2009,03,07,08,37,4.90
2009,03,07,08,38,4.90
2009,03,07,08,39,5.00
2009,03,07,08,40,5.00
2009,03,07,08,41,5.10
2009,03,07,08,42,5.10
2009,03,07,08,43,5.10
2009,03,07,08,44,5.10
2009,03,07,08,45,5.10
2009,03,07,08,46,5.20
2009,03,07,08,47,5.20
2009,03,07,08,48,5.20
2009,03,07,08,49,5.30
2009,03,07,08,50,5.30
2009,03,07,08,51,5.30
2009,03,07,08,52,5.30
2009,03,07,08,53,5.30
2009,03,07,08,54,5.30
2009,03,07,08,55,5.40
2009,03,07,08,56,5.40
2009,03,07,08,57,5.40
2009,03,07,08,58,5.40
2009,03,07,08,59,5.40
2009,03,07,09,00,5.50
2009,03,07,09,01,5.50
2009,03,07,09,02,5.60
2009,03,07,09,03,5.60
2009,03,07,09,04,5.60
2009,03,07,09,05,5.60
2009,03,07,09,06,5.60
2009,03,07,09,07,5.60
2009,03,07,09,08,5.60
2009,03,07,09,09,5.70
2009,03,07,09,10,5.70
2009,03,07,09,11,5.70
2009,03,07,09,12,5.70
2009,03,07,09,13,5.70
2009,03,07,09,14,5.80
2009,03,07,09,15,5.80
2009,03,07,09,16,5.90
2009,03,07,09,17,5.90
2009,03,07,09,18,6.00
2009,03,07,09,19,6.00
2009,03,07,09,20,6.00
2009,03,07,09,21,6.00
2009,03,07,09,22,5.90
2009,03,07,09,23,5.90
2009,03,07,09,24,5.90
2009,03,07,09,25,5.90
2009,03,07,09,26,5.90
2009,03,07,09,27,5.90
2009,03,07,09,28,5.80
2009,03,07,09,29,5.80
2009,03,07,09,30,5.80
2009,03,07,09,31,5.80
2009,03,07,09,32,5.80
2009,03,07,09,33,5.80
2009,03,07,09,34,5.80
2009,03,07,09,35,5.70
2009,03,07,09,36,5.80
2009,03,07,09,37,5.80
2009,03,07,09,38,5.80
2009,03,07,09,39,5.90
2009,03,07,09,40,5.90
2009,03,07,09,41,6.00
2009,03,07,09,42,6.00
2009,03,07,09,43,6.00
2009,03,07,09,44,5.90
2009,03,07,09,45,5.90
2009,03,07,09,46,5.90
2009,03,07,09,47,6.00
2009,03,07,09,48,6.00
2009,03,07,09,49,6.00
2009,03,07,09,50,6.00
2009,03,07,09,51,6.10
2009,03,07,09,52,6.10
2009,03,07,09,53,6.10
2009,03,07,09,54,6.10
2009,03,07,09,55,6.10
2009,03,07,09,56,6.10
2009,03,07,09,57,6.10
2009,03,07,09,58,6.10
2009,03,07,09,59,6.10
2009,03,07,10,00,6.20
2009,03,07,10,01,6.30
2009,03,07,10,02,6.40
2009,03,07,10,03,6.50
2009,03,07,10,04,6.60
2009,03,07,10,05,6.70
2009,03,07,10,06,6.70
2009,03,07,10,07,6.70
2009,03,07,10,08,6.70
2009,03,07,10,09,6.70
2009,03,07,10,10,6.70
2009,03,07,10,11,6.70
2009,03,07,10,12,6.70
2009,03,07,10,13,6.80
2009,03,07,10,14,6.80
2009,03,07,10,15,6.90
2009,03,07,10,16,6.90
2009,03,07,10,17,6.90
2009,03,07,10,18,6.90
2009,03,07,10,19,6.90
2009,03,07,10,20,6.80
2009,03,07,10,21,6.80
2009,03,07,10,22,6.80
2009,03,07,10,23,6.80
2009,03,07,10,24,6.80
2009,03,07,10,25,6.80
2009,03,07,10,26,6.90
2009,03,07,10,27,6.90
2009,03,07,10,28,6.90
2009,03,07,10,29,6.90
2009,03,07,10,30,6.80
2009,03,07,10,31,6.80
2009,03,07,10,32,6.70
2009,03,07,10,33,6.70
2009,03,07,10,34,6.60
2009,03,07,10,35,6.60
2009,03,07,10,36,6.70
2009,03,07,10,37,6.70
2009,03,07,10,38,6.70
2009,03,07,10,39,6.70
2009,03,07,10,40,6.80
2009,03,07,10,41,6.80
2009,03,07,10,42,6.80
2009,03,07,10,43,6.90
2009,03,07,10,44,6.90
2009,03,07,10,45,6.90
2009,03,07,10,46,6.80
2009,03,07,10,47,6.60
2009,03,07,10,48,6.60
2009,03,07,10,49,6.50
2009,03,07,10,50,6.50
2009,03,07,10,51,6.50
2009,03,07,10,52,6.50
2009,03,07,10,53,6.40
2009,03,07,10,54,6.40
2009,03,07,10,55,6.40
2009,03,07,10,56,6.40
2009,03,07,10,57,6.40
2009,03,07,10,58,6.30
2009,03,07,10,59,6.30
2009,03,07,11,00,6.30
2009,03,07,11,01,6.30
2009,03,07,11,02,6.30
2009,03,07,11,03,6.30
2009,03,07,11,04,6.30
2009,03,07,11,05,6.30
2009,03,07,11,06,6.20
2009,03,07,11,07,6.20
2009,03,07,11,08,6.20
2009,03,07,11,09,6.10
2009,03,07,11,10,6.00
2009,03,07,11,11,5.90
2009,03,07,11,12,5.80
2009,03,07,11,13,5.80
2009,03,07,11,14,5.70
2009,03,07,11,15,5.70
2009,03,07,11,16,5.70
2009,03,07,11,17,5.60
2009,03,07,11,18,5.50
2009,03,07,11,19,5.50
2009,03,07,11,20,5.40
2009,03,07,11,21,5.30
2009,03,07,11,22,5.30
2009,03,07,11,23,5.20
2009,03,07,11,24,5.20
2009,03,07,11,25,5.20
2009,03,07,11,26,5.20
2009,03,07,11,27,5.20
2009,03,07,11,28,5.30
2009,03,07,11,29,5.30
2009,03,07,11,30,5.40
2009,03,07,11,31,5.50
2009,03,07,11,32,5.60
2009,03,07,11,33,5.60
2009,03,07,11,34,5.70
2009,03,07,11,35,5.70
2009,03,07,11,36,5.80
2009,03,07,11,37,5.80
2009,03,07,11,38,5.80
2009,03,07,11,39,5.90
2009,03,07,11,40,5.90
2009,03,07,11,41,5.90
2009,03,07,11,42,6.00
2009,03,07,11,43,6.00
2009,03,07,11,44,6.00
2009,03,07,11,45,6.10
2009,03,07,11,46,6.10
2009,03,07,11,47,6.20
2009,03,07,11,48,6.10
2009,03,07,11,49,6.00
2009,03,07,11,50,6.00
2009,03,07,11,51,5.90
2009,03,07,11,52,5.80
2009,03,07,11,53,5.70
2009,03,07,11,54,5.60
2009,03,07,11,55,5.60
2009,03,07,11,56,5.60
2009,03,07,11,57,5.60
2009,03,07,11,58,5.60
2009,03,07,11,59,5.60
2009,03,07,12,00,5.60
2009,03,07,12,01,5.60
2009,03,07,12,02,5.60
2009,03,07,12,03,5.60
2009,03,07,12,04,5.60
2009,03,07,12,05,5.60
2009,03,07,12,06,5.60
2009,03,07,12,07,5.60
2009,03,07,12,08,5.60
2009,03,07,12,09,5.50
2009,03,07,12,10,5.30
2009,03,07,12,11,5.10
2009,03,07,12,12,5.00
2009,03,07,12,13,4.90
2009,03,07,12,14,4.70
2009,03,07,12,15,4.60
2009,03,07,12,16,4.60
2009,03,07,12,17,4.50
2009,03,07,12,18,4.40
2009,03,07,12,19,4.40
2009,03,07,12,20,4.30
2009,03,07,12,21,4.20
2009,03,07,12,22,4.10
2009,03,07,12,23,4.00
2009,03,07,12,24,4.00
2009,03,07,12,25,4.00
2009,03,07,12,26,4.00
2009,03,07,12,27,4.10
2009,03,07,12,28,4.00
2009,03,07,12,29,4.00
2009,03,07,12,30,4.00
2009,03,07,12,31,4.00
2009,03,07,12,32,4.00
2009,03,07,12,33,4.00
2009,03,07,12,34,4.10
2009,03,07,12,35,4.20
2009,03,07,12,36,4.20
2009,03,07,12,37,4.30
2009,03,07,12,38,4.40
2009,03,07,12,39,4.50
2009,03,07,12,40,4.50
2009,03,07,12,41,4.50
2009,03,07,12,42,4.60
2009,03,07,12,43,4.70
2009,03,07,12,44,4.70
2009,03,07,12,45,4.80
2009,03,07,12,46,4.80
2009,03,07,12,47,4.80
2009,03,07,12,48,4.80
2009,03,07,12,49,4.80
2009,03,07,12,50,4.80
2009,03,07,12,51,4.80
2009,03,07,12,52,4.80
2009,03,07,12,53,4.80
2009,03,07,12,54,4.80
2009,03,07,12,55,4.90
2009,03,07,12,56,4.90
2009,03,07,12,57,5.00
2009,03,07,12,58,5.10
2009,03,07,12,59,5.10
2009,03,07,13,00,5.10
2009,03,07,13,01,5.10
2009,03,07,13,02,5.10
2009,03,07,13,03,5.10
2009,03,07,13,04,5.20
2009,03,07,13,05,5.30
2009,03,07,13,06,5.30
2009,03,07,13,07,5.30
2009,03,07,13,08,5.30
2009,03,07,13,09,5.20
2009,03,07,13,10,5.20
2009,03,07,13,11,5.20
2009,03,07,13,12,5.30
2009,03,07,13,13,5.30
2009,03,07,13,14,5.40
2009,03,07,13,15,5.30
2009,03,07,13,16,5.30
2009,03,07,13,17,5.30
2009,03,07,13,18,5.40
2009,03,07,13,19,5.40
2009,03,07,13,20,5.40
2009,03,07,13,21,5.40
2009,03,07,13,22,5.50
2009,03,07,13,23,5.60
2009,03,07,13,24,5.70
2009,03,07,13,25,5.70
2009,03,07,13,26,5.70
2009,03,07,13,27,5.70
2009,03,07,13,28,5.70
2009,03,07,13,29,5.70
2009,03,07,13,30,5.60
2009,03,07,13,31,5.50
2009,03,07,13,32,5.50
2009,03,07,13,33,5.50
2009,03,07,13,34,5.50
2009,03,07,13,35,5.50
2009,03,07,13,36,5.40
2009,03,07,13,37,5.40
2009,03,07,13,38,5.40
2009,03,07,13,39,5.40
2009,03,07,13,40,5.30
2009,03,07,13,41,5.30
2009,03,07,13,42,5.30
2009,03,07,13,43,5.30
2009,03,07,13,44,5.30
2009,03,07,13,45,5.30
2009,03,07,13,46,5.30
2009,03,07,13,47,5.30
2009,03,07,13,48,5.30
2009,03,07,13,49,5.30
2009,03,07,13,50,5.30
2009,03,07,13,51,5.30
2009,03,07,13,52,5.30
2009,03,07,13,53,5.20
2009,03,07,13,54,5.20
2009,03,07,13,55,5.10
2009,03,07,13,56,5.10
2009,03,07,13,57,5.10
2009,03,07,13,58,5.10
2009,03,07,13,59,5.00
2009,03,07,14,00,5.00
2009,03,07,14,01,5.00
2009,03,07,14,02,4.90
2009,03,07,14,03,4.90
2009,03,07,14,04,4.80
2009,03,07,14,05,4.80
2009,03,07,14,06,4.80
2009,03,07,14,07,4.80
2009,03,07,14,08,4.80
2009,03,07,14,09,4.80
2009,03,07,14,10,4.90
2009,03,07,14,11,5.00
2009,03,07,14,12,5.10
2009,03,07,14,13,5.20
2009,03,07,14,14,5.30
2009,03,07,14,15,5.30
2009,03,07,14,16,5.30
2009,03,07,14,17,5.40
2009,03,07,14,18,5.40
2009,03,07,14,19,5.40
2009,03,07,14,20,5.40
2009,03,07,14,21,5.40
2009,03,07,14,22,5.40
2009,03,07,14,23,5.40
2009,03,07,14,24,5.40
2009,03,07,14,25,5.40
2009,03,07,14,26,5.50
2009,03,07,14,27,5.40
2009,03,07,14,28,5.40
2009,03,07,14,29,5.40
2009,03,07,14,30,5.30
2009,03,07,14,31,5.30
2009,03,07,14,32,5.20
2009,03,07,14,33,5.20
2009,03,07,14,34,5.20
2009,03,07,14,35,5.20
2009,03,07,14,36,5.20
2009,03,07,14,37,5.20
2009,03,07,14,38,5.20
2009,03,07,14,39,5.20
2009,03,07,14,40,5.20
2009,03,07,14,41,5.20
2009,03,07,14,42,5.20
2009,03,07,14,43,5.20
2009,03,07,14,44,5.10
2009,03,07,14,45,5.10
2009,03,07,14,46,5.00
2009,03,07,14,47,4.90
2009,03,07,14,48,4.90
2009,03,07,14,49,4.90
2009,03,07,14,50,4.90
2009,03,07,14,51,4.80
2009,03,07,14,52,4.80
2009,03,07,14,53,4.80
2009,03,07,14,54,4.80
2009,03,07,14,55,4.80
2009,03,07,14,56,4.80
2009,03,07,14,57,4.80
2009,03,07,14,58,4.70
2009,03,07,14,59,4.60
2009,03,07,15,00,4.50
2009,03,07,15,01,4.40
2009,03,07,15,02,4.30
2009,03,07,15,03,4.20
2009,03,07,15,04,4.10
2009,03,07,15,05,4.10
2009,03,07,15,06,4.10
2009,03,07,15,07,4.10
2009,03,07,15,08,4.20
2009,03,07,15,09,4.20
2009,03,07,15,10,4.30
2009,03,07,15,11,4.30
2009,03,07,15,12,4.30
2009,03,07,15,13,4.30
2009,03,07,15,14,4.30
2009,03,07,15,15,4.30
2009,03,07,15,16,4.30
2009,03,07,15,17,4.30
2009,03,07,15,18,4.30
2009,03,07,15,19,4.40
2009,03,07,15,20,4.50
2009,03,07,15,21,4.60
2009,03,07,15,22,4.60
2009,03,07,15,23,4.70
2009,03,07,15,24,4.80
2009,03,07,15,25,4.80
2009,03,07,15,26,4.80
2009,03,07,15,27,4.90
2009,03,07,15,28,4.90
2009,03,07,15,29,5.00
2009,03,07,15,30,5.00
2009,03,07,15,31,5.00
2009,03,07,15,32,5.00
2009,03,07,15,33,4.90
2009,03,07,15,34,4.80
2009,03,07,15,35,4.70
2009,03,07,15,36,4.70
2009,03,07,15,37,4.70
2009,03,07,15,38,4.60
2009,03,07,15,39,4.60
2009,03,07,15,40,4.50
2009,03,07,15,41,4.50
2009,03,07,15,42,4.50
2009,03,07,15,43,4.50
2009,03,07,15,44,4.40
2009,03,07,15,45,4.40
2009,03,07,15,46,4.40
2009,03,07,15,47,4.40
2009,03,07,15,48,4.30
2009,03,07,15,49,4.30
2009,03,07,15,50,4.30
2009,03,07,15,51,4.30
2009,03,07,15,52,4.30
2009,03,07,15,53,4.40
2009,03,07,15,54,4.40
2009,03,07,15,55,4.50
2009,03,07,15,56,4.60
2009,03,07,15,57,4.60
2009,03,07,15,58,4.70
2009,03,07,15,59,4.80
2009,03,07,16,00,4.80
2009,03,07,16,01,4.90
2009,03,07,16,02,4.90
2009,03,07,16,03,5.00
2009,03,07,16,04,5.10
2009,03,07,16,05,5.10
2009,03,07,16,06,5.10
2009,03,07,16,07,5.20
2009,03,07,16,08,5.20
2009,03,07,16,09,5.30
2009,03,07,16,10,5.30
2009,03,07,16,11,5.30
2009,03,07,16,12,5.30
2009,03,07,16,13,5.20
2009,03,07,16,14,5.10
2009,03,07,16,15,4.90
2009,03,07,16,16,4.70
2009,03,07,16,17,4.30
2009,03,07,16,18,4.00
2009,03,07,16,19,3.70
2009,03,07,16,20,3.40
2009,03,07,16,21,3.30
2009,03,07,16,22,3.20
2009,03,07,16,23,3.10
2009,03,07,16,24,3.00
2009,03,07,16,25,2.90
2009,03,07,16,26,2.80
2009,03,07,16,27,2.70
2009,03,07,16,28,2.60
2009,03,07,16,29,2.40
2009,03,07,16,30,2.30
2009,03,07,16,31,2.20
2009,03,07,16,32,2.10
2009,03,07,16,33,2.10
2009,03,07,16,34,2.00
2009,03,07,16,35,2.00
2009,03,07,16,36,1.90
2009,03,07,16,37,1.80
2009,03,07,16,38,1.80
2009,03,07,16,39,1.80
2009,03,07,16,40,1.70
2009,03,07,16,41,1.70
2009,03,07,16,42,1.70
2009,03,07,16,43,1.60
2009,03,07,16,44,1.60
2009,03,07,16,45,1.60
2009,03,07,16,46,1.60
2009,03,07,16,47,1.60
2009,03,07,16,48,1.60
2009,03,07,16,49,1.50
2009,03,07,16,50,1.50
2009,03,07,16,51,1.50
2009,03,07,16,52,1.50
2009,03,07,16,53,1.50
2009,03,07,16,54,1.40
2009,03,07,16,55,1.40
2009,03,07,16,56,1.40
2009,03,07,16,57,1.40
2009,03,07,16,58,1.40
2009,03,07,16,59,1.40
2009,03,07,17,00,1.30
2009,03,07,17,01,1.30
2009,03,07,17,02,1.30
2009,03,07,17,03,1.30
2009,03,07,17,04,1.30
2009,03,07,17,05,1.30
2009,03,07,17,06,1.30
2009,03,07,17,07,1.30
2009,03,07,17,08,1.40
2009,03,07,17,09,1.40
2009,03,07,17,10,1.40
2009,03,07,17,11,1.40
2009,03,07,17,12,1.40
2009,03,07,17,13,1.40
2009,03,07,17,14,1.40
2009,03,07,17,15,1.40
2009,03,07,17,16,1.40
2009,03,07,17,17,1.40
2009,03,07,17,18,1.40
2009,03,07,17,19,1.40
2009,03,07,17,20,1.40
2009,03,07,17,21,1.40
2009,03,07,17,22,1.40
2009,03,07,17,23,1.40
2009,03,07,17,24,1.40
2009,03,07,17,25,1.40
2009,03,07,17,26,1.40
2009,03,07,17,27,1.40
2009,03,07,17,28,1.40
2009,03,07,17,29,1.30
2009,03,07,17,30,1.30
2009,03,07,17,31,1.30
2009,03,07,17,32,1.30
2009,03,07,17,33,1.30
2009,03,07,17,34,1.30
2009,03,07,17,35,1.30
2009,03,07,17,36,1.40
2009,03,07,17,37,1.40
2009,03,07,17,38,1.40
2009,03,07,17,39,1.40
2009,03,07,17,40,1.40
2009,03,07,17,41,1.50
2009,03,07,17,42,1.50
2009,03,07,17,43,1.50
2009,03,07,17,44,1.60
2009,03,07,17,45,1.60
2009,03,07,17,46,1.70
2009,03,07,17,47,1.70
2009,03,07,17,48,1.70
2009,03,07,17,49,1.70
2009,03,07,17,50,1.80
2009,03,07,17,51,1.80
2009,03,07,17,52,1.80
2009,03,07,17,53,1.80
2009,03,07,17,54,1.80
2009,03,07,17,55,1.80
2009,03,07,17,56,1.90
2009,03,07,17,57,1.90
2009,03,07,17,58,1.90
2009,03,07,17,59,1.90
2009,03,07,18,00,1.90
2009,03,07,18,01,2.00
2009,03,07,18,02,2.00
2009,03,07,18,03,2.00
2009,03,07,18,04,2.00
2009,03,07,18,05,2.10
2009,03,07,18,06,2.10